Time,TemperatureF,DewpointF,PressureIn,WindDirection,WindDirectionDegrees,WindSpeedMPH,WindSpeedGustMPH,Humidity,HourlyPrecipIn,Conditions,Clouds,dailyrainin,SoftwareType,DateUTC
2013-10-17 00:01:00,59.0,31.4,29.71,North,10,0.0,0.0,35,0.00,,---,0.00,VWS V14.01,2013-10-17 04:01:00,
2013-10-17 00:02:00,59.0,31.4,29.71,North,10,0.0,0.0,35,0.00,,---,0.00,VWS V14.01,2013-10-17 04:02:00,
2013-10-17 00:07:00,58.8,31.2,29.71,NW,320,0.0,0.0,35,0.00,,---,0.00,VWS V14.01,2013-10-17 04:07:00,
2013-10-17 00:12:00,58.8,31.2,29.71,NW,320,0.0,0.0,35,0.00,,---,0.00,VWS V14.01,2013-10-17 04:12:00,
2013-10-17 00:17:00,58.8,31.2,29.71,WSW,247,0.0,0.0,35,0.00,,---,0.00,VWS V14.01,2013-10-17 04:17:00,
2013-10-17 00:22:00,58.8,31.2,29.71,NNE,29,0.0,0.0,35,0.00,,---,0.00,VWS V14.01,2013-10-17 04:22:00,
2013-10-17 00:27:00,58.8,31.2,29.71,NW,319,0.0,0.0,35,0.00,,---,0.00,VWS V14.01,2013-10-17 04:27:00,
2013-10-17 00:32:00,58.8,31.2,29.71,NNW,331,0.0,0.0,35,0.00,,---,0.00,VWS V14.01,2013-10-17 04:32:00,
2013-10-17 00:37:00,58.8,31.2,29.71,NW,309,0.0,0.0,35,0.00,,---,0.00,VWS V14.01,2013-10-17 04:37:00,
2013-10-17 00:42:00,58.8,31.2,29.71,SW,225,0.0,0.0,35,0.00,,---,0.00,VWS V14.01,2013-10-17 04:42:00,
2013-10-17 00:47:00,58.8,31.2,29.71,SSW,207,2.7,2.7,35,0.00,,---,0.00,VWS V14.01,2013-10-17 04:47:00,
2013-10-17 00:52:00,58.8,31.2,29.71,West,261,0.0,0.0,35,0.00,,---,0.00,VWS V14.01,2013-10-17 04:52:00,
2013-10-17 00:57:00,58.8,31.2,29.71,ENE,68,0.0,0.0,35,0.00,,---,0.00,VWS V14.01,2013-10-17 04:57:00,
2013-10-17 01:02:00,58.8,31.2,29.71,NW,311,4.9,5.4,35,0.00,,---,0.00,VWS V14.01,2013-10-17 05:02:00,
2013-10-17 01:07:00,58.6,31.8,29.71,SSW,193,0.0,0.0,36,0.00,,---,0.00,VWS V14.01,2013-10-17 05:07:00,
2013-10-17 01:12:00,58.6,31.8,29.71,WSW,239,0.0,0.0,36,0.00,,---,0.00,VWS V14.01,2013-10-17 05:12:00,
2013-10-17 01:17:00,58.6,31.8,29.71,SSW,213,0.0,0.0,36,0.00,,---,0.00,VWS V14.01,2013-10-17 05:17:00,
2013-10-17 01:22:00,58.6,31.8,29.71,WSW,244,0.0,0.0,36,0.00,,---,0.00,VWS V14.01,2013-10-17 05:22:00,
2013-10-17 01:27:00,58.6,31.8,29.71,NW,314,0.0,0.0,36,0.00,,---,0.00,VWS V14.01,2013-10-17 05:27:00,
2013-10-17 01:32:00,58.6,31.8,29.71,North,349,0.0,0.0,36,0.00,,---,0.00,VWS V14.01,2013-10-17 05:32:00,
2013-10-17 01:37:00,58.5,31.6,29.71,North,349,0.0,0.0,36,0.00,,---,0.00,VWS V14.01,2013-10-17 05:37:00,
2013-10-17 01:42:00,58.6,31.8,29.71,North,349,0.0,0.0,36,0.00,,---,0.00,VWS V14.01,2013-10-17 05:42:00,
2013-10-17 01:47:00,58.6,31.8,29.71,SW,220,0.0,0.0,36,0.00,,---,0.00,VWS V14.01,2013-10-17 05:47:00,
2013-10-17 01:52:00,58.6,31.8,29.71,SSW,207,0.0,0.0,36,0.00,,---,0.00,VWS V14.01,2013-10-17 05:52:00,
2013-10-17 01:57:00,58.6,31.8,29.71,WSW,244,0.0,0.0,36,0.00,,---,0.00,VWS V14.01,2013-10-17 05:57:00,
2013-10-17 02:02:00,58.6,31.8,29.71,NW,320,0.0,0.0,36,0.00,,---,0.00,VWS V14.01,2013-10-17 06:02:00,
2013-10-17 02:07:00,58.6,31.8,29.71,NW,320,0.0,0.0,36,0.00,,---,0.00,VWS V14.01,2013-10-17 06:07:00,
2013-10-17 02:12:00,58.6,31.8,29.71,NW,320,0.0,0.0,36,0.00,,---,0.00,VWS V14.01,2013-10-17 06:12:00,
2013-10-17 02:17:00,58.6,31.8,29.71,SW,235,0.0,0.0,36,0.00,,---,0.00,VWS V14.01,2013-10-17 06:17:00,
2013-10-17 02:22:00,58.6,31.8,29.71,SW,225,0.0,0.0,36,0.00,,---,0.00,VWS V14.01,2013-10-17 06:22:00,
2013-10-17 02:27:00,58.6,31.8,29.71,WSW,247,0.0,0.0,36,0.00,,---,0.00,VWS V14.01,2013-10-17 06:27:00,
2013-10-17 02:32:00,58.6,31.8,29.71,West,280,0.0,0.0,36,0.00,,---,0.00,VWS V14.01,2013-10-17 06:32:00,
2013-10-17 02:37:00,58.6,31.8,29.71,SSE,158,0.0,0.0,36,0.00,,---,0.00,VWS V14.01,2013-10-17 06:37:00,
2013-10-17 02:42:00,58.6,31.8,29.71,NNW,337,0.0,0.0,36,0.00,,---,0.00,VWS V14.01,2013-10-17 06:42:00,
2013-10-17 02:47:00,58.6,31.8,29.71,NE,37,0.0,0.0,36,0.00,,---,0.00,VWS V14.01,2013-10-17 06:47:00,
2013-10-17 02:52:00,58.6,31.8,29.71,WSW,244,2.7,2.7,36,0.00,,---,0.00,VWS V14.01,2013-10-17 06:52:00,
2013-10-17 02:57:00,58.6,31.8,29.71,WNW,285,0.0,0.0,36,0.00,,---,0.00,VWS V14.01,2013-10-17 06:57:00,
2013-10-17 03:02:00,58.6,31.8,29.71,SSW,192,0.0,0.0,36,0.00,,---,0.00,VWS V14.01,2013-10-17 07:02:00,
2013-10-17 03:07:00,58.6,31.8,29.71,SW,229,0.0,0.0,36,0.00,,---,0.00,VWS V14.01,2013-10-17 07:07:00,
2013-10-17 03:12:00,58.6,31.8,29.71,WSW,240,0.0,3.1,36,0.00,,---,0.00,VWS V14.01,2013-10-17 07:12:00,
2013-10-17 03:17:00,58.6,31.8,29.71,SSE,148,0.0,0.0,36,0.00,,---,0.00,VWS V14.01,2013-10-17 07:17:00,
2013-10-17 03:22:00,58.6,31.8,29.71,SW,216,2.7,6.3,36,0.04,,---,0.04,VWS V14.01,2013-10-17 07:22:00,
2013-10-17 03:27:00,58.5,31.6,29.71,South,188,0.0,0.0,36,0.04,,---,0.04,VWS V14.01,2013-10-17 07:27:00,
2013-10-17 03:32:00,58.5,31.6,29.71,NW,312,0.0,0.0,36,0.04,,---,0.04,VWS V14.01,2013-10-17 07:32:00,
2013-10-17 03:37:00,58.5,31.6,29.71,WNW,290,0.0,0.0,36,0.04,,---,0.04,VWS V14.01,2013-10-17 07:37:00,
2013-10-17 03:42:00,58.5,31.6,29.71,NNW,335,0.0,0.0,36,0.04,,---,0.04,VWS V14.01,2013-10-17 07:42:00,
2013-10-17 03:47:00,58.5,31.6,29.68,North,9,0.0,0.0,36,0.04,,---,0.04,VWS V14.01,2013-10-17 07:47:00,
2013-10-17 03:52:00,58.5,31.6,29.68,West,265,0.0,0.0,36,0.04,,---,0.04,VWS V14.01,2013-10-17 07:52:00,
2013-10-17 03:57:00,58.5,31.6,29.68,NW,311,0.0,0.0,36,0.04,,---,0.04,VWS V14.01,2013-10-17 07:57:00,
2013-10-17 04:02:00,58.5,31.6,29.68,WSW,246,0.0,0.0,36,0.04,,---,0.04,VWS V14.01,2013-10-17 08:02:00,
2013-10-17 04:07:00,58.5,31.6,29.68,North,353,0.0,0.0,36,0.04,,---,0.04,VWS V14.01,2013-10-17 08:07:00,
2013-10-17 04:08:00,58.5,31.6,29.68,North,353,0.0,0.0,36,0.04,,---,0.04,VWS V14.01,2013-10-17 08:08:00,
2013-10-17 04:13:00,58.3,31.5,29.68,WSW,251,0.0,0.0,36,0.04,,---,0.04,VWS V14.01,2013-10-17 08:13:00,
2013-10-17 04:18:00,58.3,31.5,29.68,WSW,251,0.0,0.0,36,0.04,,---,0.04,VWS V14.01,2013-10-17 08:18:00,
2013-10-17 04:23:00,58.3,31.5,29.68,SSW,206,0.0,0.0,36,0.00,,---,0.04,VWS V14.01,2013-10-17 08:23:00,
2013-10-17 04:28:00,58.3,31.5,29.68,NNW,329,0.0,0.0,36,0.00,,---,0.04,VWS V14.01,2013-10-17 08:28:00,
2013-10-17 04:33:00,58.1,31.3,29.68,North,1,0.0,0.0,36,0.00,,---,0.04,VWS V14.01,2013-10-17 08:33:00,
2013-10-17 04:38:00,57.7,31.0,29.68,NW,318,0.0,3.1,36,0.00,,---,0.04,VWS V14.01,2013-10-17 08:38:00,
2013-10-17 04:43:00,57.6,30.8,29.68,North,0,0.0,0.0,36,0.00,,---,0.04,VWS V14.01,2013-10-17 08:43:00,
2013-10-17 04:48:00,57.6,30.8,29.68,North,0,0.0,0.0,36,0.00,,---,0.04,VWS V14.01,2013-10-17 08:48:00,
2013-10-17 04:53:00,57.6,30.8,29.68,NNW,334,0.0,0.0,36,0.00,,---,0.04,VWS V14.01,2013-10-17 08:53:00,
2013-10-17 04:58:00,57.4,30.7,29.68,WNW,287,0.0,0.0,36,0.00,,---,0.04,VWS V14.01,2013-10-17 08:58:00,
2013-10-17 05:03:00,57.4,30.7,29.68,NNW,339,0.0,0.0,36,0.00,,---,0.04,VWS V14.01,2013-10-17 09:03:00,
2013-10-17 05:08:00,57.2,30.5,29.68,NW,318,0.0,0.0,36,0.00,,---,0.04,VWS V14.01,2013-10-17 09:08:00,
2013-10-17 05:13:00,57.2,30.5,29.68,NW,321,0.0,0.0,36,0.00,,---,0.04,VWS V14.01,2013-10-17 09:13:00,
2013-10-17 05:18:00,57.0,30.4,29.68,NW,309,0.0,0.0,36,0.00,,---,0.04,VWS V14.01,2013-10-17 09:18:00,
2013-10-17 05:23:00,56.8,30.2,29.68,NW,309,0.0,0.0,36,0.00,,---,0.04,VWS V14.01,2013-10-17 09:23:00,
2013-10-17 05:28:00,56.5,29.9,29.68,NW,309,0.0,0.0,36,0.00,,---,0.04,VWS V14.01,2013-10-17 09:28:00,
2013-10-17 05:33:00,56.5,29.9,29.68,West,272,0.0,0.0,36,0.00,,---,0.04,VWS V14.01,2013-10-17 09:33:00,
2013-10-17 05:38:00,56.5,29.9,29.68,North,353,0.0,0.0,36,0.00,,---,0.04,VWS V14.01,2013-10-17 09:38:00,
2013-10-17 05:43:00,56.5,29.9,29.68,NNW,344,0.0,0.0,36,0.00,,---,0.04,VWS V14.01,2013-10-17 09:43:00,
2013-10-17 05:48:00,56.3,29.7,29.68,NNW,344,0.0,0.0,36,0.00,,---,0.04,VWS V14.01,2013-10-17 09:48:00,
2013-10-17 05:53:00,56.3,29.7,29.68,NNW,344,0.0,0.0,36,0.00,,---,0.04,VWS V14.01,2013-10-17 09:53:00,
2013-10-17 05:58:00,56.3,29.7,29.68,NNW,344,0.0,0.0,36,0.00,,---,0.04,VWS V14.01,2013-10-17 09:58:00,
2013-10-17 06:03:00,56.3,29.7,29.68,NNW,344,0.0,0.0,36,0.00,,---,0.04,VWS V14.01,2013-10-17 10:03:00,
2013-10-17 06:08:00,56.3,29.7,29.68,NNW,344,0.0,0.0,36,0.00,,---,0.04,VWS V14.01,2013-10-17 10:08:00,
2013-10-17 06:13:00,56.3,29.7,29.71,NNW,344,0.0,0.0,36,0.00,,---,0.04,VWS V14.01,2013-10-17 10:13:00,
2013-10-17 06:18:00,56.3,29.7,29.71,NNW,344,0.0,0.0,36,0.00,,---,0.04,VWS V14.01,2013-10-17 10:18:00,
2013-10-17 06:23:00,56.3,29.7,29.71,NNW,344,0.0,0.0,36,0.00,,---,0.04,VWS V14.01,2013-10-17 10:23:00,
2013-10-17 06:28:00,56.3,29.7,29.71,NNW,344,0.0,0.0,36,0.00,,---,0.04,VWS V14.01,2013-10-17 10:28:00,
2013-10-17 06:33:00,56.3,29.7,29.68,NNW,344,0.0,0.0,36,0.00,,---,0.04,VWS V14.01,2013-10-17 10:33:00,
2013-10-17 06:38:00,56.3,29.7,29.68,NNW,344,0.0,0.0,36,0.00,,---,0.04,VWS V14.01,2013-10-17 10:38:00,
2013-10-17 06:43:00,56.3,29.7,29.68,NNW,344,0.0,0.0,36,0.00,,---,0.04,VWS V14.01,2013-10-17 10:43:00,
2013-10-17 06:48:00,56.3,29.7,29.71,NNW,344,0.0,0.0,36,0.00,,---,0.04,VWS V14.01,2013-10-17 10:48:00,
2013-10-17 06:53:00,56.3,29.7,29.71,NNW,344,0.0,0.0,36,0.00,,---,0.04,VWS V14.01,2013-10-17 10:53:00,
2013-10-17 06:58:00,56.3,29.7,29.68,NNW,344,0.0,0.0,36,0.00,,---,0.04,VWS V14.01,2013-10-17 10:58:00,
2013-10-17 07:03:00,56.3,29.7,29.68,NNW,344,0.0,0.0,36,0.00,,---,0.04,VWS V14.01,2013-10-17 11:03:00,
2013-10-17 07:08:00,56.3,29.7,29.68,NNW,344,0.0,0.0,36,0.00,,---,0.04,VWS V14.01,2013-10-17 11:08:00,
2013-10-17 07:13:00,56.3,29.7,29.68,NNW,344,0.0,0.0,36,0.00,,---,0.04,VWS V14.01,2013-10-17 11:13:00,
2013-10-17 07:18:00,56.3,29.7,29.68,NNW,344,0.0,0.0,36,0.00,,---,0.04,VWS V14.01,2013-10-17 11:18:00,
2013-10-17 07:23:00,56.3,29.7,29.68,NNW,344,0.0,0.0,36,0.00,,---,0.04,VWS V14.01,2013-10-17 11:23:00,
2013-10-17 07:28:00,56.3,29.7,29.68,NNW,344,0.0,0.0,36,0.00,,---,0.04,VWS V14.01,2013-10-17 11:28:00,
2013-10-17 07:33:00,56.3,29.7,29.68,NNW,344,0.0,0.0,36,0.00,,---,0.04,VWS V14.01,2013-10-17 11:33:00,
2013-10-17 07:38:00,56.3,29.7,29.68,NNW,344,0.0,0.0,36,0.00,,---,0.04,VWS V14.01,2013-10-17 11:38:00,
2013-10-17 07:43:00,56.3,29.7,29.68,NNW,344,0.0,0.0,36,0.00,,---,0.04,VWS V14.01,2013-10-17 11:43:00,
2013-10-17 07:48:00,56.3,29.7,29.68,NNW,344,0.0,0.0,36,0.00,,---,0.04,VWS V14.01,2013-10-17 11:48:00,
2013-10-17 07:53:00,56.3,29.7,29.68,NNW,344,0.0,0.0,36,0.00,,---,0.04,VWS V14.01,2013-10-17 11:53:00,
2013-10-17 07:58:00,56.1,29.5,29.68,NNW,344,0.0,0.0,36,0.00,,---,0.04,VWS V14.01,2013-10-17 11:58:00,
2013-10-17 08:03:00,56.3,29.7,29.68,NNW,344,0.0,0.0,36,0.00,,---,0.04,VWS V14.01,2013-10-17 12:03:00,
2013-10-17 08:08:00,56.5,29.9,29.68,NNW,344,0.0,0.0,36,0.00,,---,0.04,VWS V14.01,2013-10-17 12:08:00,
2013-10-17 08:13:00,56.5,29.9,29.68,NNW,344,0.0,0.0,36,0.00,,---,0.04,VWS V14.01,2013-10-17 12:13:00,
2013-10-17 08:18:00,56.5,29.9,29.68,NNW,344,0.0,0.0,36,0.00,,---,0.04,VWS V14.01,2013-10-17 12:18:00,
2013-10-17 08:23:00,56.7,30.0,29.68,NNW,344,0.0,0.0,36,0.00,,---,0.04,VWS V14.01,2013-10-17 12:23:00,
2013-10-17 08:28:00,56.8,30.2,29.68,NNW,344,0.0,0.0,36,0.00,,---,0.04,VWS V14.01,2013-10-17 12:28:00,
2013-10-17 08:33:00,56.8,30.2,29.68,NNW,344,0.0,0.0,36,0.00,,---,0.04,VWS V14.01,2013-10-17 12:33:00,
2013-10-17 08:38:00,56.8,30.2,29.68,NNW,344,0.0,0.0,36,0.00,,---,0.04,VWS V14.01,2013-10-17 12:38:00,
2013-10-17 08:43:00,56.8,30.2,29.68,NNW,344,0.0,0.0,36,0.00,,---,0.04,VWS V14.01,2013-10-17 12:43:00,
2013-10-17 08:48:00,56.8,30.2,29.68,NNW,344,0.0,0.0,36,0.00,,---,0.04,VWS V14.01,2013-10-17 12:48:00,
2013-10-17 08:53:00,57.0,30.4,29.68,NNW,344,0.0,0.0,36,0.00,,---,0.04,VWS V14.01,2013-10-17 12:53:00,
2013-10-17 08:58:00,57.2,30.5,29.68,NNW,344,0.0,0.0,36,0.00,,---,0.04,VWS V14.01,2013-10-17 12:58:00,
2013-10-17 09:03:00,57.4,30.7,29.68,NNW,344,0.0,0.0,36,0.00,,---,0.04,VWS V14.01,2013-10-17 13:03:00,
2013-10-17 09:08:00,57.4,30.7,29.68,NNW,344,0.0,0.0,36,0.00,,---,0.04,VWS V14.01,2013-10-17 13:08:00,
2013-10-17 09:13:00,57.4,30.7,29.68,NNW,344,0.0,0.0,36,0.00,,---,0.04,VWS V14.01,2013-10-17 13:13:00,
2013-10-17 09:18:00,57.6,30.8,29.68,NNW,344,0.0,0.0,36,0.00,,---,0.04,VWS V14.01,2013-10-17 13:18:00,
2013-10-17 09:23:00,57.7,31.0,29.68,NNW,344,0.0,0.0,36,0.00,,---,0.04,VWS V14.01,2013-10-17 13:23:00,
2013-10-17 09:28:00,57.9,31.1,29.68,NNW,344,0.0,0.0,36,0.00,,---,0.04,VWS V14.01,2013-10-17 13:28:00,
2013-10-17 09:33:00,58.1,31.3,29.68,NNW,344,0.0,0.0,36,0.00,,---,0.04,VWS V14.01,2013-10-17 13:33:00,
2013-10-17 09:38:00,58.5,31.6,29.68,NNW,344,0.0,0.0,36,0.00,,---,0.04,VWS V14.01,2013-10-17 13:38:00,
2013-10-17 09:43:00,58.5,31.6,29.68,NNW,344,0.0,0.0,36,0.00,,---,0.04,VWS V14.01,2013-10-17 13:43:00,
2013-10-17 09:48:00,58.3,31.5,29.68,NNW,344,0.0,0.0,36,0.00,,---,0.04,VWS V14.01,2013-10-17 13:48:00,
2013-10-17 09:53:00,58.1,31.3,29.68,NNW,344,0.0,0.0,36,0.00,,---,0.04,VWS V14.01,2013-10-17 13:53:00,
2013-10-17 09:58:00,57.9,31.1,29.68,NNW,344,0.0,0.0,36,0.00,,---,0.04,VWS V14.01,2013-10-17 13:58:00,
2013-10-17 10:03:00,58.1,31.3,29.68,NNW,344,0.0,0.0,36,0.00,,---,0.04,VWS V14.01,2013-10-17 14:03:00,
2013-10-17 10:08:00,58.3,31.5,29.68,NNW,344,0.0,0.0,36,0.00,,---,0.04,VWS V14.01,2013-10-17 14:08:00,
2013-10-17 10:13:00,58.5,31.6,29.68,NNW,344,0.0,0.0,36,0.00,,---,0.04,VWS V14.01,2013-10-17 14:13:00,
2013-10-17 10:18:00,58.8,32.0,29.68,NNW,344,0.0,0.0,36,0.00,,---,0.04,VWS V14.01,2013-10-17 14:18:00,
2013-10-17 10:23:00,58.8,32.0,29.68,NNW,344,0.0,0.0,36,0.00,,---,0.04,VWS V14.01,2013-10-17 14:23:00,
2013-10-17 10:28:00,58.3,31.5,29.68,NNW,344,0.0,0.0,36,0.00,,---,0.04,VWS V14.01,2013-10-17 14:28:00,
2013-10-17 10:33:00,58.1,31.3,29.68,NNW,344,0.0,0.0,36,0.00,,---,0.04,VWS V14.01,2013-10-17 14:33:00,
2013-10-17 10:38:00,58.3,31.5,29.68,NNW,344,0.0,0.0,36,0.00,,---,0.04,VWS V14.01,2013-10-17 14:38:00,
2013-10-17 10:43:00,58.3,31.5,29.68,NNW,344,0.0,0.0,36,0.00,,---,0.04,VWS V14.01,2013-10-17 14:43:00,
2013-10-17 10:48:00,58.5,31.6,29.68,NNW,344,0.0,0.0,36,0.00,,---,0.04,VWS V14.01,2013-10-17 14:48:00,
2013-10-17 10:53:00,58.5,31.6,29.68,NNW,344,0.0,0.0,36,0.00,,---,0.04,VWS V14.01,2013-10-17 14:53:00,
2013-10-17 10:58:00,58.5,31.6,29.68,NNW,344,0.0,0.0,36,0.00,,---,0.04,VWS V14.01,2013-10-17 14:58:00,
2013-10-17 11:03:00,58.5,31.6,29.68,NNW,344,0.0,0.0,36,0.00,,---,0.04,VWS V14.01,2013-10-17 15:03:00,
2013-10-17 11:08:00,58.3,31.5,29.68,NNW,344,0.0,0.0,36,0.00,,---,0.04,VWS V14.01,2013-10-17 15:08:00,
2013-10-17 11:13:00,58.5,31.6,29.68,NNW,344,0.0,0.0,36,0.00,,---,0.04,VWS V14.01,2013-10-17 15:13:00,
2013-10-17 11:18:00,59.2,31.6,29.65,NNW,344,0.0,0.0,35,0.00,,---,0.04,VWS V14.01,2013-10-17 15:18:00,
2013-10-17 11:23:00,59.4,31.7,29.65,NNW,344,0.0,0.0,35,0.00,,---,0.04,VWS V14.01,2013-10-17 15:23:00,
2013-10-17 11:28:00,59.4,31.7,29.65,NNW,344,0.0,0.0,35,0.00,,---,0.04,VWS V14.01,2013-10-17 15:28:00,
2013-10-17 11:33:00,59.2,31.6,29.68,NNW,344,0.0,0.0,35,0.00,,---,0.04,VWS V14.01,2013-10-17 15:33:00,
2013-10-17 11:38:00,59.4,31.7,29.68,NNW,344,0.0,0.0,35,0.00,,---,0.04,VWS V14.01,2013-10-17 15:38:00,
2013-10-17 11:43:00,59.5,31.9,29.68,NNW,344,0.0,0.0,35,0.00,,---,0.04,VWS V14.01,2013-10-17 15:43:00,
2013-10-17 11:48:00,59.7,32.0,29.65,NNW,344,0.0,0.0,35,0.00,,---,0.04,VWS V14.01,2013-10-17 15:48:00,
2013-10-17 11:53:00,60.3,32.5,29.65,NNW,344,0.0,0.0,35,0.00,,---,0.04,VWS V14.01,2013-10-17 15:53:00,
2013-10-17 11:58:00,60.6,32.8,29.65,NNW,344,0.0,0.0,35,0.00,,---,0.04,VWS V14.01,2013-10-17 15:58:00,
2013-10-17 12:03:00,60.6,32.8,29.65,NNW,344,0.0,0.0,35,0.00,,---,0.04,VWS V14.01,2013-10-17 16:03:00,
2013-10-17 12:08:00,60.4,32.7,29.65,NNW,344,0.0,0.0,35,0.00,,---,0.04,VWS V14.01,2013-10-17 16:08:00,
2013-10-17 12:13:00,60.6,32.8,29.65,NNW,344,0.0,0.0,35,0.00,,---,0.04,VWS V14.01,2013-10-17 16:13:00,
2013-10-17 12:18:00,60.6,32.8,29.65,NNW,344,0.0,0.0,35,0.00,,---,0.04,VWS V14.01,2013-10-17 16:18:00,
2013-10-17 12:23:00,60.6,32.8,29.65,NNW,344,0.0,0.0,35,0.00,,---,0.04,VWS V14.01,2013-10-17 16:23:00,
2013-10-17 12:28:00,60.4,32.7,29.65,NNW,344,0.0,0.0,35,0.00,,---,0.04,VWS V14.01,2013-10-17 16:28:00,
2013-10-17 12:33:00,60.4,32.7,29.65,NNW,344,0.0,0.0,35,0.00,,---,0.04,VWS V14.01,2013-10-17 16:33:00,
2013-10-17 12:38:00,60.4,32.7,29.65,NNW,344,0.0,0.0,35,0.00,,---,0.04,VWS V14.01,2013-10-17 16:38:00,
2013-10-17 12:43:00,60.6,32.8,29.65,NNW,344,0.0,0.0,35,0.00,,---,0.04,VWS V14.01,2013-10-17 16:43:00,
2013-10-17 12:48:00,60.8,33.0,29.65,NNW,344,0.0,0.0,35,0.00,,---,0.04,VWS V14.01,2013-10-17 16:48:00,
2013-10-17 12:53:00,61.2,33.3,29.65,NNW,344,0.0,0.0,35,0.00,,---,0.04,VWS V14.01,2013-10-17 16:53:00,
2013-10-17 12:58:00,61.2,33.3,29.65,NNW,344,0.0,0.0,35,0.00,,---,0.04,VWS V14.01,2013-10-17 16:58:00,
2013-10-17 13:03:00,61.5,33.6,29.62,NNW,344,0.0,0.0,35,0.00,,---,0.04,VWS V14.01,2013-10-17 17:03:00,
2013-10-17 13:08:00,61.5,33.6,29.62,NNW,344,0.0,0.0,35,0.00,,---,0.04,VWS V14.01,2013-10-17 17:08:00,
2013-10-17 13:13:00,61.3,33.5,29.62,NNW,344,0.0,0.0,35,0.00,,---,0.04,VWS V14.01,2013-10-17 17:13:00,
2013-10-17 13:18:00,61.3,33.5,29.62,NNW,344,0.0,0.0,35,0.00,,---,0.04,VWS V14.01,2013-10-17 17:18:00,
2013-10-17 13:23:00,61.3,33.5,29.62,NNW,344,0.0,0.0,35,0.00,,---,0.04,VWS V14.01,2013-10-17 17:23:00,
2013-10-17 13:28:00,61.3,33.5,29.62,NNW,344,0.0,0.0,35,0.00,,---,0.04,VWS V14.01,2013-10-17 17:28:00,
2013-10-17 13:33:00,61.7,33.8,29.62,NNW,344,0.0,0.0,35,0.00,,---,0.04,VWS V14.01,2013-10-17 17:33:00,
2013-10-17 13:38:00,62.2,34.3,29.62,NNW,344,0.0,0.0,35,0.00,,---,0.04,VWS V14.01,2013-10-17 17:38:00,
2013-10-17 13:43:00,62.2,34.3,29.62,NNW,344,0.0,0.0,35,0.00,,---,0.04,VWS V14.01,2013-10-17 17:43:00,
2013-10-17 13:48:00,62.4,34.4,29.59,North,353,0.0,0.0,35,0.00,,---,0.04,VWS V14.01,2013-10-17 17:48:00,
2013-10-17 13:53:00,62.2,34.3,29.59,North,353,0.0,0.0,35,0.00,,---,0.04,VWS V14.01,2013-10-17 17:53:00,
2013-10-17 13:58:00,62.1,34.1,29.59,North,353,0.0,0.0,35,0.00,,---,0.04,VWS V14.01,2013-10-17 17:58:00,
2013-10-17 14:03:00,62.1,34.1,29.59,North,353,0.0,0.0,35,0.00,,---,0.04,VWS V14.01,2013-10-17 18:03:00,
2013-10-17 14:08:00,62.1,34.1,29.59,North,353,0.0,0.0,35,0.00,,---,0.04,VWS V14.01,2013-10-17 18:08:00,
2013-10-17 14:13:00,62.1,34.1,29.59,North,353,0.0,0.0,35,0.00,,---,0.04,VWS V14.01,2013-10-17 18:13:00,
2013-10-17 14:18:00,62.2,34.3,29.57,North,353,0.0,0.0,35,0.00,,---,0.04,VWS V14.01,2013-10-17 18:18:00,
2013-10-17 14:23:00,62.2,34.3,29.57,North,353,0.0,0.0,35,0.00,,---,0.04,VWS V14.01,2013-10-17 18:23:00,
2013-10-17 14:27:00,63.1,34.3,29.57,North,353,0.0,0.0,34,0.00,,---,0.04,VWS V14.01,2013-10-17 18:27:00,
2013-10-17 14:32:00,63.9,35.0,29.57,North,353,0.0,0.0,34,0.00,,---,0.04,VWS V14.01,2013-10-17 18:32:00,
2013-10-17 14:37:00,63.7,34.8,29.57,NE,41,0.0,0.0,34,0.00,,---,0.04,VWS V14.01,2013-10-17 18:37:00,
2013-10-17 14:42:00,63.3,34.5,29.57,NW,322,0.0,0.0,34,0.00,,---,0.04,VWS V14.01,2013-10-17 18:42:00,
2013-10-17 14:47:00,63.0,34.2,29.57,NW,322,0.0,0.0,34,0.00,,---,0.04,VWS V14.01,2013-10-17 18:47:00,
2013-10-17 14:52:00,62.6,33.9,29.57,NW,322,0.0,0.0,34,0.00,,---,0.04,VWS V14.01,2013-10-17 18:52:00,
2013-10-17 14:57:00,62.2,33.5,29.57,NW,322,0.0,0.0,34,0.00,,---,0.04,VWS V14.01,2013-10-17 18:57:00,
2013-10-17 15:02:00,61.9,34.0,29.57,NNW,331,0.0,0.0,35,0.00,,---,0.04,VWS V14.01,2013-10-17 19:02:00,
2013-10-17 15:07:00,61.5,33.6,29.57,NNW,331,0.0,0.0,35,0.00,,---,0.04,VWS V14.01,2013-10-17 19:07:00,
2013-10-17 15:12:00,61.2,33.3,29.57,NNW,337,0.0,0.0,35,0.00,,---,0.04,VWS V14.01,2013-10-17 19:12:00,
2013-10-17 15:17:00,60.6,32.8,29.54,NNW,337,0.0,0.0,35,0.00,,---,0.04,VWS V14.01,2013-10-17 19:17:00,
2013-10-17 15:22:00,60.4,32.7,29.54,NNW,337,0.0,0.0,35,0.00,,---,0.04,VWS V14.01,2013-10-17 19:22:00,
2013-10-17 15:27:00,60.3,32.5,29.54,NNW,337,0.0,0.0,35,0.00,,---,0.04,VWS V14.01,2013-10-17 19:27:00,
2013-10-17 15:31:00,60.3,32.5,29.54,NNW,337,0.0,0.0,35,0.00,,---,0.04,VWS V14.01,2013-10-17 19:31:00,
2013-10-17 15:36:00,60.3,32.5,29.54,NNW,337,0.0,0.0,35,0.00,,---,0.04,VWS V14.01,2013-10-17 19:36:00,
2013-10-17 15:41:00,60.3,32.5,29.54,NNW,334,0.0,0.0,35,0.00,,---,0.04,VWS V14.01,2013-10-17 19:41:00,
2013-10-17 15:46:00,60.4,32.7,29.54,NNW,334,0.0,0.0,35,0.00,,---,0.04,VWS V14.01,2013-10-17 19:46:00,
2013-10-17 15:51:00,60.4,32.7,29.54,NNW,334,0.0,0.0,35,0.00,,---,0.04,VWS V14.01,2013-10-17 19:51:00,
2013-10-17 15:56:00,60.6,32.8,29.54,NNW,334,0.0,0.0,35,0.00,,---,0.04,VWS V14.01,2013-10-17 19:56:00,
2013-10-17 16:01:00,60.4,32.7,29.54,NNW,334,0.0,0.0,35,0.00,,---,0.04,VWS V14.01,2013-10-17 20:01:00,
2013-10-17 16:06:00,60.4,32.7,29.54,NNW,334,0.0,0.0,35,0.00,,---,0.04,VWS V14.01,2013-10-17 20:06:00,
2013-10-17 16:11:00,60.4,32.7,29.54,NE,41,0.0,0.0,35,0.00,,---,0.04,VWS V14.01,2013-10-17 20:11:00,
2013-10-17 16:16:00,60.4,32.7,29.54,NE,41,0.0,0.0,35,0.00,,---,0.04,VWS V14.01,2013-10-17 20:16:00,
2013-10-17 16:21:00,60.4,32.7,29.54,West,272,0.0,0.0,35,0.04,,---,0.08,VWS V14.01,2013-10-17 20:21:00,
2013-10-17 16:26:00,60.4,32.7,29.54,West,275,0.0,0.0,35,0.04,,---,0.08,VWS V14.01,2013-10-17 20:26:00,
2013-10-17 16:31:00,60.6,32.8,29.54,West,275,0.0,0.0,35,0.04,,---,0.08,VWS V14.01,2013-10-17 20:31:00,
2013-10-17 16:36:00,60.8,33.0,29.54,West,275,0.0,0.0,35,0.04,,---,0.08,VWS V14.01,2013-10-17 20:36:00,
2013-10-17 16:41:00,60.8,33.0,29.54,West,275,0.0,0.0,35,0.04,,---,0.08,VWS V14.01,2013-10-17 20:41:00,
2013-10-17 16:46:00,60.8,33.0,29.51,West,275,0.0,0.0,35,0.04,,---,0.08,VWS V14.01,2013-10-17 20:46:00,
2013-10-17 16:51:00,61.0,33.2,29.51,West,275,0.0,0.0,35,0.04,,---,0.08,VWS V14.01,2013-10-17 20:51:00,
2013-10-17 16:56:00,61.0,33.2,29.51,West,275,0.0,0.0,35,0.04,,---,0.08,VWS V14.01,2013-10-17 20:56:00,
2013-10-17 17:01:00,61.0,33.2,29.51,WSW,250,0.0,0.0,35,0.04,,---,0.08,VWS V14.01,2013-10-17 21:01:00,
2013-10-17 17:06:00,61.0,33.2,29.51,WSW,246,0.0,0.0,35,0.04,,---,0.08,VWS V14.01,2013-10-17 21:06:00,
2013-10-17 17:11:00,61.0,33.2,29.51,WSW,249,0.0,2.2,35,0.04,,---,0.08,VWS V14.01,2013-10-17 21:11:00,
2013-10-17 17:16:00,61.0,33.2,29.51,WSW,249,0.0,0.0,35,0.04,,---,0.08,VWS V14.01,2013-10-17 21:16:00,
2013-10-17 17:21:00,61.0,33.2,29.51,NW,305,0.0,0.0,35,0.00,,---,0.08,VWS V14.01,2013-10-17 21:21:00,
2013-10-17 17:26:00,60.1,32.4,29.51,ENE,62,0.0,4.9,35,0.04,,---,0.12,VWS V14.01,2013-10-17 21:26:00,
2013-10-17 17:31:00,57.4,30.0,29.51,West,260,3.1,3.1,35,0.04,,---,0.12,VWS V14.01,2013-10-17 21:31:00,
2013-10-17 17:36:00,55.6,29.1,29.51,West,273,4.5,6.3,36,0.04,,---,0.12,VWS V14.01,2013-10-17 21:36:00,
2013-10-17 17:41:00,54.9,28.4,29.51,WNW,288,0.0,3.6,36,0.04,,---,0.12,VWS V14.01,2013-10-17 21:41:00,
2013-10-17 17:46:00,54.1,27.8,29.54,WSW,249,0.0,4.0,36,0.04,,---,0.12,VWS V14.01,2013-10-17 21:46:00,
2013-10-17 17:51:00,53.8,27.5,29.54,ENE,74,2.7,4.0,36,0.04,,---,0.12,VWS V14.01,2013-10-17 21:51:00,
2013-10-17 17:56:00,53.6,27.3,29.54,West,272,4.0,4.0,36,0.04,,---,0.12,VWS V14.01,2013-10-17 21:56:00,
2013-10-17 18:01:00,52.3,26.9,29.59,SSW,206,3.6,4.9,37,0.04,,---,0.12,VWS V14.01,2013-10-17 22:01:00,
2013-10-17 18:06:00,51.4,26.0,29.59,SSW,198,0.0,3.6,37,0.08,,---,0.16,VWS V14.01,2013-10-17 22:06:00,
2013-10-17 18:11:00,51.1,25.7,29.59,WNW,292,0.0,0.0,37,0.08,,---,0.16,VWS V14.01,2013-10-17 22:11:00,
2013-10-17 18:16:00,50.7,25.4,29.57,NW,324,0.0,0.0,37,0.08,,---,0.16,VWS V14.01,2013-10-17 22:16:00,
2013-10-17 18:21:00,50.7,25.4,29.57,NNW,339,0.0,0.0,37,0.16,,---,0.24,VWS V14.01,2013-10-17 22:21:00,
2013-10-17 18:26:00,50.7,25.4,29.57,NNW,329,0.0,0.0,37,0.12,,---,0.24,VWS V14.01,2013-10-17 22:26:00,
2013-10-17 18:31:00,50.7,25.4,29.59,NW,325,0.0,0.0,37,0.12,,---,0.24,VWS V14.01,2013-10-17 22:31:00,
2013-10-17 18:36:00,50.7,25.4,29.59,WNW,303,0.0,0.0,37,0.12,,---,0.24,VWS V14.01,2013-10-17 22:36:00,
2013-10-17 18:41:00,50.5,25.2,29.59,NNW,329,0.0,0.0,37,0.12,,---,0.24,VWS V14.01,2013-10-17 22:41:00,
2013-10-17 18:46:00,50.5,25.2,29.59,North,357,0.0,0.0,37,0.12,,---,0.24,VWS V14.01,2013-10-17 22:46:00,
2013-10-17 18:51:00,50.4,25.1,29.59,NW,323,0.0,0.0,37,0.12,,---,0.24,VWS V14.01,2013-10-17 22:51:00,
2013-10-17 18:56:00,50.4,25.1,29.59,SSW,200,0.0,0.0,37,0.12,,---,0.24,VWS V14.01,2013-10-17 22:56:00,
2013-10-17 19:01:00,50.4,25.1,29.62,SSW,200,0.0,0.0,37,0.12,,---,0.24,VWS V14.01,2013-10-17 23:01:00,
2013-10-17 19:06:00,50.4,25.1,29.62,NW,308,0.0,0.0,37,0.08,,---,0.24,VWS V14.01,2013-10-17 23:06:00,
2013-10-17 19:11:00,50.4,25.1,29.62,NNW,329,0.0,0.0,37,0.08,,---,0.24,VWS V14.01,2013-10-17 23:11:00,
2013-10-17 19:16:00,50.2,24.9,29.62,NW,308,0.0,0.0,37,0.08,,---,0.24,VWS V14.01,2013-10-17 23:16:00,
2013-10-17 19:21:00,50.2,24.9,29.62,SW,224,0.0,3.6,37,0.00,,---,0.24,VWS V14.01,2013-10-17 23:21:00,
2013-10-17 19:26:00,50.0,24.8,29.62,West,259,0.0,0.0,37,0.00,,---,0.24,VWS V14.01,2013-10-17 23:26:00,
2013-10-17 19:31:00,49.8,24.6,29.62,West,272,0.0,2.7,37,0.00,,---,0.24,VWS V14.01,2013-10-17 23:31:00,
2013-10-17 19:36:00,49.6,24.5,29.62,WNW,295,4.9,4.9,37,0.00,,---,0.24,VWS V14.01,2013-10-17 23:36:00,
2013-10-17 19:41:00,49.3,24.1,29.62,ESE,117,0.0,0.0,37,0.00,,---,0.24,VWS V14.01,2013-10-17 23:41:00,
2013-10-17 19:46:00,49.1,24.0,29.62,WSW,238,3.6,4.0,37,0.00,,---,0.24,VWS V14.01,2013-10-17 23:46:00,
2013-10-17 19:51:00,48.9,23.8,29.62,WSW,255,3.1,3.6,37,0.00,,---,0.24,VWS V14.01,2013-10-17 23:51:00,
2013-10-17 19:56:00,49.1,24.0,29.62,West,264,0.0,0.0,37,0.00,,---,0.24,VWS V14.01,2013-10-17 23:56:00,
2013-10-17 20:01:00,49.1,24.0,29.62,NNE,18,0.0,4.0,37,0.00,,---,0.24,VWS V14.01,2013-10-18 00:01:00,
2013-10-17 20:06:00,48.9,23.8,29.62,West,268,3.1,4.9,37,0.00,,---,0.24,VWS V14.01,2013-10-18 00:06:00,
2013-10-17 20:11:00,48.7,23.6,29.62,WNW,284,6.3,6.3,37,0.00,,---,0.24,VWS V14.01,2013-10-18 00:11:00,
2013-10-17 20:16:00,48.4,23.3,29.65,WSW,256,4.0,4.0,37,0.00,,---,0.24,VWS V14.01,2013-10-18 00:16:00,
2013-10-17 20:21:00,48.0,23.6,29.65,ENE,69,7.2,7.2,38,0.00,,---,0.24,VWS V14.01,2013-10-18 00:21:00,
2013-10-17 20:26:00,47.7,23.3,29.65,WSW,237,5.8,6.3,38,0.00,,---,0.24,VWS V14.01,2013-10-18 00:26:00,
2013-10-17 20:31:00,47.3,23.0,29.65,West,270,2.7,5.4,38,0.00,,---,0.24,VWS V14.01,2013-10-18 00:31:00,
2013-10-17 20:36:00,47.3,23.0,29.65,West,267,4.9,4.9,38,0.00,,---,0.24,VWS V14.01,2013-10-18 00:36:00,
2013-10-17 20:41:00,47.3,23.0,29.65,West,259,3.1,3.1,38,0.00,,---,0.24,VWS V14.01,2013-10-18 00:41:00,
2013-10-17 20:46:00,46.9,22.7,29.65,SW,233,0.0,3.1,38,0.00,,---,0.24,VWS V14.01,2013-10-18 00:46:00,
2013-10-17 20:51:00,46.8,22.5,29.65,South,169,3.6,3.6,38,0.00,,---,0.24,VWS V14.01,2013-10-18 00:51:00,
2013-10-17 20:56:00,46.6,22.4,29.65,NE,47,2.7,2.7,38,0.00,,---,0.24,VWS V14.01,2013-10-18 00:56:00,
2013-10-17 21:01:00,46.2,22.0,29.68,West,275,0.0,0.0,38,0.00,,---,0.24,VWS V14.01,2013-10-18 01:01:00,
2013-10-17 21:06:00,46.0,21.9,29.68,WSW,251,3.6,4.0,38,0.00,,---,0.24,VWS V14.01,2013-10-18 01:06:00,
2013-10-17 21:11:00,45.7,21.5,29.68,West,279,3.1,3.6,38,0.00,,---,0.24,VWS V14.01,2013-10-18 01:11:00,
2013-10-17 21:16:00,45.5,21.4,29.68,NNW,340,6.3,6.3,38,0.00,,---,0.24,VWS V14.01,2013-10-18 01:16:00,
2013-10-17 21:21:00,45.3,21.2,29.68,WNW,282,0.0,0.0,38,0.00,,---,0.24,VWS V14.01,2013-10-18 01:21:00,
2013-10-17 21:26:00,45.3,21.2,29.68,SSE,168,2.2,2.2,38,0.00,,---,0.24,VWS V14.01,2013-10-18 01:26:00,
2013-10-17 21:31:00,45.3,21.2,29.68,NW,312,0.0,0.0,38,0.00,,---,0.24,VWS V14.01,2013-10-18 01:31:00,
2013-10-17 21:36:00,45.3,21.2,29.68,NNE,26,0.0,0.0,38,0.00,,---,0.24,VWS V14.01,2013-10-18 01:36:00,
2013-10-17 21:41:00,45.3,21.2,29.68,NW,313,2.2,3.1,38,0.00,,---,0.24,VWS V14.01,2013-10-18 01:41:00,
2013-10-17 21:46:00,45.5,21.4,29.68,NNW,331,0.0,0.0,38,0.00,,---,0.24,VWS V14.01,2013-10-18 01:46:00,
2013-10-17 21:51:00,45.5,21.4,29.68,NE,44,0.0,0.0,38,0.00,,---,0.24,VWS V14.01,2013-10-18 01:51:00,
2013-10-17 21:56:00,45.5,21.4,29.68,North,357,4.0,4.0,38,0.00,,---,0.24,VWS V14.01,2013-10-18 01:56:00,
2013-10-17 22:01:00,45.5,21.4,29.68,SW,217,0.0,0.0,38,0.00,,---,0.24,VWS V14.01,2013-10-18 02:01:00,
2013-10-17 22:06:00,45.5,21.4,29.68,WNW,290,0.0,0.0,38,0.00,,---,0.24,VWS V14.01,2013-10-18 02:06:00,
2013-10-17 22:11:00,45.5,21.4,29.68,ENE,64,0.0,0.0,38,0.00,,---,0.24,VWS V14.01,2013-10-18 02:11:00,
2013-10-17 22:16:00,45.7,21.5,29.68,ENE,63,0.0,0.0,38,0.00,,---,0.24,VWS V14.01,2013-10-18 02:16:00,
2013-10-17 22:21:00,45.7,21.5,29.68,North,353,0.0,4.0,38,0.00,,---,0.24,VWS V14.01,2013-10-18 02:21:00,
2013-10-17 22:26:00,45.7,21.5,29.68,WNW,287,0.0,0.0,38,0.00,,---,0.24,VWS V14.01,2013-10-18 02:26:00,
2013-10-17 22:31:00,45.5,21.4,29.68,WNW,285,0.0,0.0,38,0.00,,---,0.24,VWS V14.01,2013-10-18 02:31:00,
2013-10-17 22:36:00,45.7,21.5,29.68,North,4,4.9,4.9,38,0.00,,---,0.24,VWS V14.01,2013-10-18 02:36:00,
2013-10-17 22:41:00,45.7,21.5,29.68,WSW,247,2.7,2.7,38,0.00,,---,0.24,VWS V14.01,2013-10-18 02:41:00,
2013-10-17 22:46:00,45.7,21.5,29.68,NW,311,0.0,0.0,38,0.00,,---,0.24,VWS V14.01,2013-10-18 02:46:00,
2013-10-17 22:51:00,45.5,21.4,29.68,West,275,0.0,0.0,38,0.00,,---,0.24,VWS V14.01,2013-10-18 02:51:00,
2013-10-17 22:56:00,45.9,21.7,29.68,WSW,254,0.0,0.0,38,0.00,,---,0.24,VWS V14.01,2013-10-18 02:56:00,
2013-10-17 23:01:00,45.9,21.7,29.68,WSW,242,0.0,0.0,38,0.00,,---,0.24,VWS V14.01,2013-10-18 03:01:00,
2013-10-17 23:06:00,45.9,21.7,29.68,NW,308,3.6,3.6,38,0.00,,---,0.24,VWS V14.01,2013-10-18 03:06:00,
2013-10-17 23:11:00,45.7,21.5,29.68,WSW,258,3.1,3.1,38,0.00,,---,0.24,VWS V14.01,2013-10-18 03:11:00,
2013-10-17 23:16:00,45.9,21.7,29.68,WSW,254,0.0,0.0,38,0.00,,---,0.24,VWS V14.01,2013-10-18 03:16:00,
2013-10-17 23:21:00,45.9,21.7,29.68,SSW,193,0.0,0.0,38,0.00,,---,0.24,VWS V14.01,2013-10-18 03:21:00,
2013-10-17 23:26:00,45.9,21.7,29.68,WSW,241,3.6,3.6,38,0.00,,---,0.24,VWS V14.01,2013-10-18 03:26:00,
2013-10-17 23:31:00,45.9,21.7,29.68,NNW,339,4.9,5.4,38,0.00,,---,0.24,VWS V14.01,2013-10-18 03:31:00,
2013-10-17 23:36:00,45.9,21.7,29.68,West,271,0.0,0.0,38,0.00,,---,0.24,VWS V14.01,2013-10-18 03:36:00,
2013-10-17 23:41:00,45.9,21.7,29.68,North,0,4.0,4.0,38,0.00,,---,0.24,VWS V14.01,2013-10-18 03:41:00,
2013-10-17 23:46:00,45.9,21.7,29.68,WSW,238,3.6,4.9,38,0.00,,---,0.24,VWS V14.01,2013-10-18 03:46:00,
2013-10-17 23:51:00,45.7,21.5,29.68,South,190,2.7,2.7,38,0.04,,---,0.28,VWS V14.01,2013-10-18 03:51:00,
2013-10-17 23:56:00,45.7,21.5,29.68,WSW,248,0.0,0.0,38,0.04,,---,0.28,VWS V14.01,2013-10-18 03:56:00,